User: anonymous   Login
Location: Bukit Lungun
(2.6833°N, 113.9667°E)
Time: 14:49:11
(UTC+00:00)
Language:

CZ-4C R/B - Orbit

View from above orbital plane
View from above orbital plane
View from above satellite
View from above satellite

Ground track
Ground track

The orbit data is extracted from the following two-line orbital elements,

1 32290U 07055B   21129.22911388  .00001755  00000-0  43833-4 0  9995
2 32290  97.6817 305.7297 0060010  91.4042 269.4079 15.39861986750214
Epoch (UTC): 09 May 2021 05:29:55
Eccentricity: 0.0060010
inclination: 97.6817°
perigee height: 405 km
apogee height: 487 km
right ascension of ascending node: 305.7297°
argument of perigee: 91.4042°
revolutions per day: 15.39861986
mean anomaly at epoch: 269.4079°
orbit number at epoch: 75021

The dashed part of the orbit path shows where the satellite is in the earth's shadow,  

DLR